STARLINK-34597 (64738 NORAD) Tracking and Keplerian Element Data

This shows tracking and keplerian element data for the satellite.

Feedback or suggestion? Click here.




ElementValue
Catalog64738
NameSTARLINK-34597
Epoch Orbit2743
Epoch Day353.5977467
Epoch Year2025
RAAN192.7613
Inclination53.1569
Eccentricity0.0001647
Argument of Perigee102.9649
Mean Anonmoly257.1536
Mean Motion15.3020497
Decay Rate0.00013216
L11 64738U 25144Q 25353.59774670 .00013216 00000+0 45748-3 0 9990
L22 64738 53.1569 192.7613 0001647 102.9649 257.1536 15.30204970 27433



Live tracking and technical data element details for STARLINK-34597 (NORAD 64738). STARLINK-34597 can be tracked NOW for your location showing map with azimuth and elevation plus other details from your city location.







IsCatalogInMostPopularTable: catalog: 64738, numindb: 10
Update: records affected: 1



GetName: 64738 STARLINK-34597

Hit Count: updated at: Tue, 21 Apr 2026 20:34:34 GMT